Regional Weather Roundup
Issued by NWS

Home | Current Version | Previous Version | Text Only | Print | Product List | Glossary On
Versions: 1 2 3 4 5 6 7 8 9 10 11 12 13 14 15 16 17 18 19 20 21 22 23 24 25 26 27 28 29 30 31 32 33 34 35 36 37 38 39 40 41 42 43 44 45 46 47 48 49 50
000
ASUS44 KOUN 241010
RWROK

WEATHER ROUNDUP FOR OKLAHOMA
NATIONAL WEATHER SERVICE NORMAN OK
500 AM CDT SUN MAY 24 2015

NOTE: "FAIR" INDICATES FEW OR NO CLOUDS BELOW 12,000 FEET WITH NO
      SIGNIFICANT WEATHER AND/OR OBSTRUCTIONS TO VISIBILITY.

OKZ001>007-009>012-014-015-017-241100-
NORTHWEST OKLAHOMA AND THE PANHANDLE

CITY           SKY/WX    TMP DP  RH WIND       PRES   REMARKS
GAGE           CLOUDY    59  57  93 S23       29.85R
GUYMON         CLOUDY    59  57  93 S10       29.90S
ENID/WOODRING  CLOUDY    61  61 100 S9G16     29.82R
$$

OKZ016-021>023-033>039-044-045-241100-
SOUTHWEST OKLAHOMA

CITY           SKY/WX    TMP DP  RH WIND       PRES   REMARKS
LAWTON/REGL    CLOUDY    63  60  90 E6        29.90F
LAWTON/FT SILL CLOUDY    62  60  91 SE3       29.89S
FREDERICK      CLOUDY    62  61  96 NE8       29.87F
CLINTON        CLOUDY    60  58  92 S9        29.90F
HOBART         CLOUDY    60  60 100 S5        29.90F
$$

OKZ018>020-024>031-241100-
CENTRAL OKLAHOMA

CITY           SKY/WX    TMP DP  RH WIND       PRES   REMARKS
OKLAHOMA CITY  CLOUDY    60  59  96 S10       29.88R
OKC/WILEY POST CLOUDY    61  59  93 S10       29.88R
OKC/TINKER AFB CLOUDY    60  59  96 S9        29.88R
STILLWATER     CLOUDY    61  59  93 S13       29.84R
GUTHRIE        CLOUDY    61  59  93 S12       29.85R
$$

OKZ008-013-054>072-241100-
NORTHEAST OKLAHOMA

CITY           SKY/WX    TMP DP  RH WIND       PRES   REMARKS
TULSA          LGT RAIN  63  62  97 S13       29.90R
TULSA/JONES    RAIN      63  61  93 S8        29.91R
PONCA CITY     CLOUDY    62  61  96 S7        29.82S
BARTLESVILLE   CLOUDY    62  62 100 SW6       29.88R
MUSKOGEE       RAIN      63  62  97 S6        29.95S FOG
$$

OKZ032-040>043-046>053-073>077-241100-
SOUTH CENTRAL/SOUTHEAST OKLAHOMA

CITY           SKY/WX    TMP DP  RH WIND       PRES   REMARKS
ARDMORE/DWNTWN LGT RAIN  61  61 100 NE8       29.88F
MCALESTER      HVY RAIN  62  61  96 NE5       29.96R FOG
$$



USA.gov is the U.S. government's official web portal to all federal, state and local government web resources and services.